This demonstration page uses our WeatherBlox Daily Observations layout. Learn more.

38.88101, -77.10428

Hourly Observations for January 24, 2021

Temp ( °F °C ) Dew Point ( °F °C ) Humidity (%) Winds ( mph kmh ) Pressure ( in mb ) Visibility ( mi km ) Precip ( " mm )
12:52 am 00:52 Mostly Cloudy 26 -3.3 10 -12.2 51 51 NNW 10 17 30.33 1027 10 16.0934 0 0
1:52 am 01:52 Cloudy 26 -3.3 10 -12.2 51 51 NW 12 19 30.34 1027 10 16.0934 0 0
2:52 am 02:52 Cloudy 26 -3.3 10 -12.2 51 51 NW 8 13 30.34 1027 10 16.0934 0 0
3:52 am 03:52 Cloudy 26 -3.3 11 -11.7 53 53 NNW 12 19 30.33 1027 10 16.0934 0 0
4:52 am 04:52 Cloudy 26 -3.3 11 -11.7 53 53 NW 8 13 30.32 1027 10 16.0934 0 0
5:52 am 05:52 Mostly Cloudy 26 -3.3 11 -11.7 53 53 NNW 12 19 30.34 1028 10 16.0934 0 0
6:52 am 06:52 Partly Cloudy 26 -3.3 11 -11.7 53 53 NW 8 13 30.35 1028 10 16.0934 0 0
7:52 am 07:52 Partly Cloudy 26 -3.3 12 -11.1 55 55 NW 9 15 30.36 1028 10 16.0934 0 0
8:52 am 08:52 Partly Cloudy 28 -2.2 13 -10.6 53 53 NW 9 15 30.35 1028 10 16.0934 0 0
9:52 am 09:52 Partly Cloudy 31 -0.6 13 -10.6 47 47 NW 8 13 30.35 1028 10 16.0934 0 0
10:52 am 10:52 Partly Cloudy 32 0 14 -10 47 47 NNW 12 19 30.32 1027 10 16.0934 0 0
11:52 am 11:52 Mostly Cloudy 34 1.1 13 -10.6 42 42 WNW 6 9 30.31 1026 10 16.0934 0 0
12:52 pm 12:52 Mostly Cloudy 37 2.8 13 -10.6 37 37 NW 5 7 30.27 1025 10 16.0934 0 0
1:52 pm 13:52 Mostly Cloudy 36 2.2 12 -11.1 37 37 Calm 30.25 1025 10 16.0934 0 0
2:52 pm 14:52 Mostly Cloudy 37 2.8 13 -10.6 37 37 NW 3 6 30.23 1024 10 16.0934 0 0
3:52 pm 15:52 Cloudy 37 2.8 12 -11.1 36 36 Calm 30.2 1023 10 16.0934 0 0
4:52 pm 16:52 Cloudy 37 2.8 12 -11.1 36 36 Calm 30.21 1023 10 16.0934 0 0
5:52 pm 17:52 Cloudy 37 2.8 12 -11.1 36 36 W 6 9 30.22 1023 10 16.0934 0 0
6:52 pm 18:52 Cloudy 37 2.8 12 -11.1 36 36 SW 6 9 30.22 1023 10 16.0934 0 0
7:52 pm 19:52 Cloudy 37 2.8 14 -10 39 39 SSW 5 7 30.19 1023 10 16.0934 0 0
8:52 pm 20:52 Cloudy 36 2.2 16 -8.9 44 44 Calm 30.19 1022 10 16.0934 0 0
9:52 pm 21:52 Cloudy 36 2.2 18 -7.8 48 48 S 3 6 30.18 1022 10 16.0934 0 0
10:52 pm 22:52 Cloudy 36 2.2 20 -6.7 52 52 S 3 6 30.17 1022 10 16.0934 0 0
11:52 pm 23:52 Cloudy 36 2.2 19 -7.2 50 50 SSE 5 7 30.16 1021 10 16.0934 0 0

Powered by AerisWeather